Terug naar catalogus

STARLINK-36179

ActiefCommunicatieVLEO
NORAD 67119·PAYLOAD·🇺🇸 United States

Gelanceerd Dec 15, 2025 vanaf Cape Canaveral Space Force Station

Loading…

Volgende Passages (komende 24 uur)

TLE

VersSource: CelesTrak SupGP

Epoch: Sep 15, 2026, 03:52 UTC

1 67119C 25299T   26258.16159722  .00020399  00000+0  73894-3 0  2581
2 67119  43.0026 178.8814 0001343 273.7402 113.5337 15.27564890    15

Volg STARLINK-36179 in realtime met AllMySat

Download on the App Store